Location: Newark
(23.2528°N, 105.1886°E)
Time: 19:27:57
(UTC+00:00)

LightSail 2 - Visible Passes

Search period start: 20 October 2019 00:00
Search period end: 30 October 2019 00:00
Orbit: 707 x 722 km, 24.0° (Epoch: 19 October)

Date Brightness Start Highest point End Pass type
(mag) Time Alt. Az. Time Alt. Az. Time Alt. Az.
20 Oct 5.2 10:58:21 10° W 11:03:31 83° SSW 11:08:36 11° ESE visible
20 Oct 6.6 12:44:09 10° W 12:47:37 33° SW 12:47:37 33° SW visible
21 Oct 5.7 11:46:26 10° W 11:51:26 51° SSW 11:53:46 29° SE visible
22 Oct 5.5 10:48:46 10° W 10:53:51 64° SSW 10:58:58 10° ESE visible
22 Oct 6.8 12:34:56 10° WSW 12:39:00 26° SSW 12:39:00 26° SSW visible
23 Oct 6.5 11:37:01 10° W 11:41:39 34° SSW 11:45:18 15° SE visible
24 Oct 6.2 10:39:13 10° W 10:44:05 44° SSW 10:48:58 10° SE visible
24 Oct 7.4 12:26:20 10° WSW 12:29:19 15° SSW 12:30:41 14° S visible
25 Oct 7.2 11:27:57 10° WSW 11:31:47 21° SSW 11:35:39 10° SSE visible
27 Oct 7.8 11:19:50 10° SW 11:21:52 12° SSW 11:23:55 10° S visible
